SITRO-AIS 10 (BURDAEV)

Last updated on Thu Nov 21 2024 00:03:40 GMT+0000 (Coordinated Universal Time)

1 57199U 23091AK 24325.54000025 .00017349 00000+0 88949-3 0 9992 2 57199 97.5919 18.3148 0009795 296.2634 63.7592 15.16585427 77202
UTC large
Height (km)
Speed (km/s)
/
Latitude / Longitude
Inclination (degrees)
Orbital Period (minutes)
Azimuth
Elevation
Range (km)
Doppler Factor

Next 0 passes for location: London (51.5072 / 0.1276)

Sorry there are no passes over London.